Tracking 30922 objects as of 2-Jul-2025
HD Live streaming from Space Station
objects crossing your sky now

STARLINK-4072

Track STARLINK-4072 now!
10-day predictions
STARLINK-4072 is classified as:


NORAD ID: 52694
Int'l Code: 2022-053AQ
Perigee: 546.1 km
Apogee: 547.7 km
Inclination: 53.2 °
Period: 95.4 minutes
Semi major axis: 6917 km
RCS: Unknown
Launch date: May 18, 2022
Source: United States (US)
Launch site: AIR FORCE EASTERN TEST RANGE (AFETR)
Your satellite tracking list
Your tracking list is empty




NASA's NSSDC Master Catalog

Two Line Element Set (TLE):
1 52694U 22053AQ  25182.73428176  .00000501  00000-0  49570-4 0  9999
2 52694  53.2161 190.7037 0001126  82.3408 277.7712 15.08834989173265
Source of the keplerian elements: AFSPC